www.pogodaiklimat.ru

Погода и климат >> Архив погоды >> Антарктида >> McMurdo


АРХИВ ПОГОДЫ в McMurdo

Время (UTC), дата Ветер
(напр.,м/с)
 
Видим.   Явления Облачность Т
(С)
Тd
(С)
f
(%)
Тe
(С)
Тes
(С)
Комфортность P
(гПа)
Po
(гПа)
Тmin
(С)
Tmax
(С)
R
(мм)
R24
(мм)
S
(см)
18 11.08 В 9 3200 м метель 10/9 1320 м
[Sc As op]
-18.6 -23.3 66 -31 -31 опасность
обморожения
991.1 986.6
00 12.08 СВ 11 11 км позёмок {метель} 9/4 900 м
[Sc Ac lent Cs]
-19.0 -25.8 55 -33 -33 опасность
обморожения
988.1 983.7 -23.1 -17.6
06 12.08 СЗ 6 11 км 9/6 300 м
[Sc Cs]
-18.7 -22.2 74 -29 -29 по сезону 988.6 984.2
12 12.08 В 7 11 км ясно -17.0 -25.0 50 -28 -28 по сезону 987.3 982.9 -21.1 -16.3
18 12.08 ЮВ 7 11 км 3/0
[Cs]
-17.8 -26.3 47 -29 -29 по сезону 987.8 983.4
00 13.08 нст 3 11 км 1/0
[Cs]
-18.2 -30.3 34 -26 -26 по сезону 989.2 984.7 -19.9 -16.1
06 13.08 штиль 0 11 км 1/0
[Cs]
-19.7 -32.0 33 -20 -20 тепло 989.3 984.9
12 13.08 нст 3 11 км ясно -20.3 -32.4 33 -28 -28 по сезону 990.5 986.1 -23.4 -18.0
18 13.08 нст 3 11 км 10/0 2000 м
[As op]
-13.9 -24.6 40 -20 -20 тепло 990.9 986.5
00 14.08 В 5 11 км осадки на расстоянии 9/9 750 м
[Sc]
-11.9 -19.6 53 -20 -20 тепло 991.5 987.1 -23.0 -11.7
06 14.08 ЮВ 6 11 км осадки на расстоянии 10/10 1050 м
[Sc]
-9.8 -14.8 67 -18 -18 тепло 992.2 987.8
12 14.08 ЮВ 13 11 км 10/0 2000 м
[As op]
-9.3 -15.0 63 -21 -21 тепло 992.9 988.5 -12.2 -9.3
18 14.08 СВ 6 2400 м слабый снег {метель} 10/10 480 м
[Frnb]
-12.4 -15.8 76 -21 -21 тепло 998.3 994.0
00 15.08 ЮВ 9 1600 м слабый снег 10/10 1200 м
[Sc]
-12.5 -15.0 82 -23 -23 тепло 1002.1 997.7 -13.9 -9.4
06 15.08 штиль 0 9000 м слабый снег 10/10 800 м
[Sc]
-13.5 -17.3 73 -14 -14 тепло 1004.9 1000.5
12 15.08 В 5 11 км слабый снег 6/6 1200 м
[Sc]
-14.7 -20.8 60 -24 -24 тепло 1007.0 1002.6 -19.1 -11.6 0.8
18 15.08 штиль 0 11 км {снег} 10/10 1500 м
[Sc]
-16.9 -22.2 63 -17 -17 тепло 1008.4 1004.0
00 16.08 С 6 11 км слабый снег 10/10 300 м
[Sc]
-13.2 -16.1 79 -22 -22 тепло 1008.5 1004.0 -21.3 -12.8
06 16.08 штиль 0 11 км {снег} 8/5 900 м
[Sc Ac trans]
-17.3 -19.9 80 -17 -17 тепло 1007.9 1003.5
12 16.08 штиль 0 11 км 1/0
[Ac trans]
-13.9 -17.2 76 -14 -14 тепло 1006.4 1002.0 -19.2 -12.2 0.5
18 16.08 штиль 0 11 км ясно -16.2 -20.2 71 -16 -16 тепло 1003.6 999.1
00 17.08 СЗ 6 11 км 5/0
[Cs]
-9.2 -22.0 35 -17 -17 тепло 1000.2 995.8 -17.3 -9.2
06 17.08 В 10 8000 м метель 4/0
[Cs]
-20.1 -25.1 64 -34 -34 опасность
обморожения
998.9 994.4
12 17.08 В 10 11 км {метель} 3/0
[Cs]
-19.5 -25.0 62 -33 -33 опасность
обморожения
999.7 995.3 -20.1 -8.2
18 17.08 штиль 0 11 км 3/0
[Cs]
-23.9 -27.7 71 -24 -24 тепло 1002.6 998.2
00 18.08 штиль 0 11 км 8/0
[Cs]
-18.4 -22.7 69 -18 -18 тепло 1004.2 999.7 -26.4 -16.9
06 18.08 нст 2 11 км 4/0
[Ac trans Cs]
-17.9 -21.9 71 -23 -23 тепло 1003.4 999.0
12 18.08 штиль 0 9000 м дымка ясно -15.8 -18.6 79 -16 -16 тепло 996.9 1001.4 -25.1 -15.2

 

Местоположение метеостанции McMurdo (Антарктида): широта -77.85 долгота 166.66 высота над уровнем моря 24 м.

В архиве по умолчанию представлена погода в McMurdo за последнюю неделю. Архивные данные за месяц целиком и за предыдущие месяцы, начиная с января 2011 года, Вы можете получить, выбрав интересующий диапазон дат из раскрывающегося списка и нажав кнопку "Ввод!".


*Определитесь, кто Вы:
робот инопланетянин человек

Внимание! Время в таблицах - всемирное. Для получения местного времени необходимо прибавить поправку, которая в McMurdo равна 0 ч.

Смотрите также архив погоды в соседних городах и на ближайших метеорологических станциях:

Погода в Pegasus North (Антарктида) (12 км)
Погода в Linda (Антарктида) (78 км)
Погода в Minna Bluff (Антарктида) (78 км)
Погода в Marble Point (Антарктида) (84 км)
Погода в Ferrell (Антарктида) (97 км)
Погода в Cape Ross (Антарктида) (156 км)
Погода в Marilyn (Антарктида) (236 км)
Погода в Schwerdtfeger (Антарктида) (236 км)
Погода в Manuela (Антарктида) (333 км)
Погода в Baia Terra Nova (Антарктида) (357 км)

Пояснения к столбцам:

Ветер - указаны скорость ветра в м/с - средняя за 10 мин, порывы в срок и между сроками (в фигурных скобках) и направление, откуда дует ветер: С - северный, СВ - северо-восточный, В - восточный, ЮВ - юго-восточный, Ю - южный, ЮЗ - юго-западный, З - западный, СЗ - северо-западный.
Видимость - горизонтальная дальность видимости в метрах или километрах. При видимости от 1 до 10 км при отсутствии осадков обычно наблюдается дымка, при ухудшении видимости до 1 км и менее - туман. В сухую погоду видимость может ухудшаться дымом, пылью или мглою.
Явления - указаны атмосферные явления, наблюдавшиеся в срок или в последний час перед сроком; фигурными скобками обозначены явления, наблюдавшиеся между сроками (за 1-3 часа до срока); квадратными скобками обозначены град или гололедные отложения с указанием их диаметра в мм.
Облачность - указаны через наклонную черту общая и нижняя облачность в баллах и высота нижней границы облаков в метрах; квадратными скобками обозначены формы облаков: Ci - перистые, Cs - перисто-слоистые, Cc - перисто-кучевые, Ac - высококучевые, As - высокослоистые, Sc - слоисто-кучевые, Ns - слоисто-дождевые, Cu - кучевые, Cb - кучево-дождевые. Подробнее классификацию облаков см. в Атласе облаков (PDF).
T - Температура воздуха - температура, измеренная на высоте 2 м над землей.
Td - Температура точки росы - температура, при понижении до которой содержащийся в воздухе водяной пар достигнет насыщения.
f - Относительная влажность воздуха - влажноcть воздуха, измеренная на высоте 2 м над землей.
Te - Эффективная температура - температура, которую ощущает одетый по сезону человек в тени. Характеристика душности погоды. При расчете учитывается влияние влажности воздуха и скорости ветра на теплоощущения человека.
Tes - Эффективная температура на солнце - температура, которую ощущает человек, с поправкой на солнечный нагрев. Характеристика знойности погоды. Зависит от высоты солнца над горизонтом, облачности и скорости ветра. Ночью, в пасмурную погоду, а также при ветре 12 м/с и более поправка равна нулю.
P - Атмосферное давление - приведенное к уровню моря атмосферное давление.
Po - Атмосферное давление - измеренное на уровне метеостанции атмосферное давление.
Tmin - Минимальная температура - минимум температуры воздуха на высоте 2 м над землей.
Tmax - Максимальная температура - максимум температуры воздуха на высоте 2 м над землей.
R - Количество осадков - Количество выпавших осадков за период времени, мм. При наведении курсора мыши на число - период времени, за который выпало указанное количество осадков.
R24 - Количество осадков - Количество выпавших осадков за 24 часа, мм.
S - Снежный покров - Высота снежного покрова, см. При наведении курсора мыши на число - состояние снежного покрова и степень покрытия местности в баллах.